Yunhai 1-04

operational
NORAD ID: 58073 Int'l Des: 2023-159 Owner: SAST Country: CN
LEOCIRCULARRETROGRADESSO

Über Yunhai 1-04

Beschreibung wird geladen...

Live-Position

3D-Globus wird geladen...

Nächste Überflüge

Höhenverlauf

Altitude vs Time

uPlot chart will show altitude changes over time

Zweizeiliger Elementsatz

1 58073U 23159A 26062.20671082 .00000346 00000-0 14333-3 0 9995
2 58073 98.5102 89.9259 0002009 121.7408 238.3972 14.32655223124628
Epoch: 3. März 2026 • Age: 23 hours

Aktueller Status

Höhe 806.5 km
Geschwindigkeit 7.45 km/s
Subsatellitenpunkt -59.32°S, 111.8°E
Startdatum 15. Okt. 2023
Alter 2.3 years
Typ other

Technische Details

Klassifizierung Payload
Masse 800.00 kg
Trockenmasse 800.00 kg
Gesamtmasse 800.00 kg
Länge 2.00 m
Durchmesser 1.50 m
Spannweite 4.00 m
Form Box + 2 Pan
Hersteller SAST
Bus-Typ Yunhai-1
Phasenstatus In Orbit
Besitzer/Staat SAST/CN

Große Konstellationen

Loading constellations...